Find Starlink 32952

NORAD ID: 63146 Int'l Des: 2025-043 Owner: SPXS Country: US Constellation: starlink operational
LEOCIRCULAR

当前视图

正在加载3D地球...

About Starlink 32952

Starlink 32952 (NORAD 63146) is a starlink constellation satellite (v2 mini) launched Mar 3, 2025 by SPXS of US. It operates in LEO, CIRCULAR orbit with a mass of 730.00 kg.

关于 Starlink 32952

正在加载描述...

即将过境

Passes for default location (London). Set your location on the main map for personalized predictions.

高度历史

Loading altitude history...

两行轨道根数

1 63146U 25043Q 26171.01971102 .00009581 00000-0 35710-3 0 9994
2 63146 42.9967 165.1218 0001041 270.3190 89.7542 15.27591362 73568
Epoch: Jun 20, 2026 • Age: 14 hours

当前状态

高度 494.6 km
速度 7.62 km/s
星下点 -40.69°S, 72.31°W
发射日期 Mar 3, 2025
运行时间 1.2 years
类型 internet

技术详情

分类 Payload
质量 730.00 kg
干质量 700.00 kg
总质量 730.00 kg
长度 0.30 m
直径 4.10 m
跨度 29.00 m
形状 Box + pan
制造商 SPXS
平台类型 Starlink V2M
阶段状态 In Orbit
所有者/国家 SPXS/US

Most Searched